Time,TemperatureF,DewpointF,PressureIn,WindDirection,WindDirectionDegrees,WindSpeedMPH,WindSpeedGustMPH,Humidity,HourlyPrecipIn,Conditions,Clouds,dailyrainin,SoftwareType,DateUTC
2013-05-30 00:00:00,52.0,52.0,30.12,South,180,6.0,6.0,100,0.01,,,0.00,Weather View 32 v70,2013-05-30 04:00:00,
2013-05-30 00:01:00,52.0,52.0,30.12,South,180,6.0,6.0,100,0.01,,,0.00,Weather View 32 v70,2013-05-30 04:01:00,
2013-05-30 00:06:00,52.0,52.0,30.12,SSE,157,2.0,6.0,100,0.01,,,0.00,Weather View 32 v70,2013-05-30 04:06:00,
2013-05-30 00:13:00,52.0,52.0,30.11,South,180,1.0,6.0,100,0.00,,,0.00,Weather View 32 v70,2013-05-30 04:13:00,
2013-05-30 00:25:00,51.0,51.0,30.11,SSW,202,4.0,6.0,100,0.01,,,0.00,Weather View 32 v70,2013-05-30 04:25:00,
2013-05-30 00:30:00,51.0,51.0,30.11,South,180,1.0,6.0,100,0.01,,,0.00,Weather View 32 v70,2013-05-30 04:30:00,
2013-05-30 00:35:00,52.0,52.0,30.12,SSW,202,3.0,6.0,100,0.01,,,0.00,Weather View 32 v70,2013-05-30 04:35:00,
2013-05-30 00:41:00,51.0,51.0,30.11,SSE,157,2.0,6.0,100,0.00,,,0.00,Weather View 32 v70,2013-05-30 04:41:00,
2013-05-30 00:46:00,52.0,52.0,30.12,SSW,202,3.0,6.0,100,0.00,,,0.00,Weather View 32 v70,2013-05-30 04:46:00,
2013-05-30 00:51:00,52.0,52.0,30.12,South,180,5.0,6.0,100,0.00,,,0.00,Weather View 32 v70,2013-05-30 04:51:00,
2013-05-30 01:02:00,52.0,52.0,30.10,SSW,202,3.0,6.0,100,0.00,,,0.00,Weather View 32 v70,2013-05-30 05:02:00,
2013-05-30 01:07:00,52.0,52.0,30.10,WSW,247,4.0,6.0,100,0.00,,,0.00,Weather View 32 v70,2013-05-30 05:07:00,
2013-05-30 01:12:00,52.0,52.0,30.10,WSW,247,2.0,6.0,100,0.00,,,0.00,Weather View 32 v70,2013-05-30 05:12:00,
2013-05-30 01:17:00,51.0,51.0,30.10,WNW,292,0.0,6.0,100,0.00,,,0.00,Weather View 32 v70,2013-05-30 05:17:00,
2013-05-30 01:22:00,51.0,51.0,30.11,WNW,292,0.0,5.0,100,0.00,,,0.00,Weather View 32 v70,2013-05-30 05:22:00,
2013-05-30 01:27:00,51.0,51.0,30.10,SW,225,4.0,5.0,100,0.00,,,0.00,Weather View 32 v70,2013-05-30 05:27:00,
2013-05-30 01:32:00,51.0,51.0,30.10,SW,225,0.0,5.0,100,0.00,,,0.00,Weather View 32 v70,2013-05-30 05:32:00,
2013-05-30 01:39:00,51.0,51.0,30.10,SSW,202,0.0,5.0,100,0.00,,,0.00,Weather View 32 v70,2013-05-30 05:39:00,
2013-05-30 01:44:00,51.0,51.0,30.10,SSW,202,3.0,5.0,100,0.00,,,0.00,Weather View 32 v70,2013-05-30 05:44:00,
2013-05-30 01:49:00,51.0,51.0,30.10,West,270,3.0,5.0,100,0.00,,,0.00,Weather View 32 v70,2013-05-30 05:49:00,
2013-05-30 01:54:00,51.0,51.0,30.10,West,270,1.0,4.0,100,0.00,,,0.00,Weather View 32 v70,2013-05-30 05:54:00,
2013-05-30 01:59:00,51.0,51.0,30.10,West,270,0.0,4.0,100,0.00,,,0.00,Weather View 32 v70,2013-05-30 05:59:00,
2013-05-30 02:04:00,51.0,51.0,30.10,SW,225,1.0,4.0,100,0.00,,,0.00,Weather View 32 v70,2013-05-30 06:04:00,
2013-05-30 02:09:00,51.0,51.0,30.10,SW,225,2.0,4.0,100,0.00,,,0.00,Weather View 32 v70,2013-05-30 06:09:00,
2013-05-30 02:14:00,51.0,51.0,30.09,SW,225,0.0,4.0,100,0.00,,,0.00,Weather View 32 v70,2013-05-30 06:14:00,
2013-05-30 02:19:00,51.0,51.0,30.09,SSW,202,3.0,4.0,100,0.00,,,0.00,Weather View 32 v70,2013-05-30 06:19:00,
2013-05-30 02:24:00,51.0,51.0,30.08,South,180,3.0,4.0,100,0.00,,,0.00,Weather View 32 v70,2013-05-30 06:24:00,
2013-05-30 02:29:00,51.0,51.0,30.08,South,180,3.0,4.0,100,0.00,,,0.00,Weather View 32 v70,2013-05-30 06:29:00,
2013-05-30 02:37:00,51.0,51.0,30.08,SSE,157,3.0,4.0,100,0.00,,,0.00,Weather View 32 v70,2013-05-30 06:37:00,
2013-05-30 02:42:00,51.0,51.0,30.08,SSE,157,2.0,4.0,100,0.00,,,0.00,Weather View 32 v70,2013-05-30 06:42:00,
2013-05-30 02:48:00,51.0,51.0,30.07,South,180,4.0,4.0,100,0.00,,,0.00,Weather View 32 v70,2013-05-30 06:48:00,
2013-05-30 02:53:00,51.0,51.0,30.06,SSW,202,0.0,4.0,100,0.00,,,0.00,Weather View 32 v70,2013-05-30 06:53:00,
2013-05-30 03:00:00,52.0,52.0,30.08,SSW,202,0.0,4.0,100,0.00,,,0.00,Weather View 32 v70,2013-05-30 07:00:00,
2013-05-30 03:05:00,51.0,51.0,30.08,SSW,202,0.0,4.0,100,0.00,,,0.00,Weather View 32 v70,2013-05-30 07:05:00,
2013-05-30 03:10:00,51.0,51.0,30.08,SW,225,0.0,4.0,100,0.00,,,0.00,Weather View 32 v70,2013-05-30 07:10:00,
2013-05-30 03:15:00,51.0,51.0,30.08,West,270,2.0,4.0,100,0.00,,,0.00,Weather View 32 v70,2013-05-30 07:15:00,
2013-05-30 03:21:00,51.0,51.0,30.08,SW,225,3.0,4.0,100,0.00,,,0.00,Weather View 32 v70,2013-05-30 07:21:00,
2013-05-30 03:26:00,51.0,51.0,30.08,SW,225,2.0,4.0,100,0.00,,,0.00,Weather View 32 v70,2013-05-30 07:26:00,
2013-05-30 03:33:00,51.0,51.0,30.08,SW,225,2.0,4.0,100,0.00,,,0.00,Weather View 32 v70,2013-05-30 07:33:00,
2013-05-30 03:38:00,51.0,51.0,30.08,SW,225,4.0,4.0,100,0.00,,,0.00,Weather View 32 v70,2013-05-30 07:38:00,
2013-05-30 04:00:00,51.0,51.0,30.08,West,270,0.0,4.0,100,0.00,,,0.00,Weather View 32 v70,2013-05-30 08:00:00,
2013-05-30 04:05:00,51.0,51.0,30.08,WSW,247,2.0,4.0,100,0.00,,,0.00,Weather View 32 v70,2013-05-30 08:05:00,
2013-05-30 04:10:00,51.0,51.0,30.08,WSW,247,0.0,4.0,100,0.00,,,0.00,Weather View 32 v70,2013-05-30 08:10:00,
2013-05-30 04:15:00,51.0,51.0,30.08,SSW,202,2.0,4.0,100,0.00,,,0.00,Weather View 32 v70,2013-05-30 08:15:00,
2013-05-30 04:20:00,51.0,51.0,30.08,South,180,0.0,4.0,100,0.00,,,0.00,Weather View 32 v70,2013-05-30 08:20:00,
2013-05-30 04:25:00,52.0,52.0,30.08,WSW,247,0.0,4.0,100,0.00,,,0.00,Weather View 32 v70,2013-05-30 08:25:00,
2013-05-30 04:30:00,51.0,51.0,30.08,WSW,247,2.0,4.0,100,0.00,,,0.00,Weather View 32 v70,2013-05-30 08:30:00,
2013-05-30 04:35:00,51.0,51.0,30.08,WSW,247,2.0,4.0,100,0.00,,,0.00,Weather View 32 v70,2013-05-30 08:35:00,
2013-05-30 04:40:00,51.0,51.0,30.08,SSW,202,1.0,4.0,100,0.00,,,0.00,Weather View 32 v70,2013-05-30 08:40:00,
2013-05-30 04:45:00,51.0,51.0,30.08,SSW,202,1.0,4.0,100,0.00,,,0.00,Weather View 32 v70,2013-05-30 08:45:00,
2013-05-30 04:51:00,51.0,51.0,30.08,SW,225,4.0,4.0,100,0.00,,,0.00,Weather View 32 v70,2013-05-30 08:51:00,
2013-05-30 04:56:00,52.0,52.0,30.08,WSW,247,1.0,4.0,100,0.00,,,0.00,Weather View 32 v70,2013-05-30 08:56:00,
2013-05-30 05:01:00,51.0,51.0,30.08,SSW,202,4.0,4.0,100,0.00,,,0.00,Weather View 32 v70,2013-05-30 09:01:00,
2013-05-30 05:06:00,51.0,51.0,30.08,SSW,202,2.0,4.0,100,0.00,,,0.00,Weather View 32 v70,2013-05-30 09:06:00,
2013-05-30 05:11:00,51.0,51.0,30.08,SSW,202,2.0,4.0,100,0.00,,,0.00,Weather View 32 v70,2013-05-30 09:11:00,
2013-05-30 05:16:00,51.0,51.0,30.08,SSW,202,2.0,4.0,100,0.00,,,0.00,Weather View 32 v70,2013-05-30 09:16:00,
2013-05-30 05:21:00,51.0,51.0,30.08,SW,225,2.0,4.0,100,0.00,,,0.00,Weather View 32 v70,2013-05-30 09:21:00,
2013-05-30 05:26:00,51.0,51.0,30.08,South,180,0.0,4.0,100,0.00,,,0.00,Weather View 32 v70,2013-05-30 09:26:00,
2013-05-30 05:38:00,51.0,51.0,30.08,SSW,202,2.0,4.0,100,0.00,,,0.00,Weather View 32 v70,2013-05-30 09:38:00,
2013-05-30 05:43:00,51.0,51.0,30.08,SSW,202,3.0,4.0,100,0.00,,,0.00,Weather View 32 v70,2013-05-30 09:43:00,
2013-05-30 05:50:00,52.0,52.0,30.08,SW,225,1.0,4.0,100,0.00,,,0.00,Weather View 32 v70,2013-05-30 09:50:00,
2013-05-30 05:55:00,52.0,52.0,30.08,SSW,202,2.0,4.0,100,0.00,,,0.00,Weather View 32 v70,2013-05-30 09:55:00,
2013-05-30 06:00:00,52.0,52.0,30.08,SSW,202,3.0,4.0,100,0.00,,,0.00,Weather View 32 v70,2013-05-30 10:00:00,
2013-05-30 06:05:00,52.0,52.0,30.08,WSW,247,2.0,4.0,100,0.00,,,0.00,Weather View 32 v70,2013-05-30 10:05:00,
2013-05-30 06:10:00,52.0,52.0,30.09,WSW,247,2.0,4.0,100,0.00,,,0.00,Weather View 32 v70,2013-05-30 10:10:00,
2013-05-30 06:15:00,52.0,52.0,30.10,SSW,202,2.0,4.0,100,0.00,,,0.00,Weather View 32 v70,2013-05-30 10:15:00,
2013-05-30 06:20:00,52.0,52.0,30.10,SSW,202,0.0,4.0,100,0.00,,,0.00,Weather View 32 v70,2013-05-30 10:20:00,
2013-05-30 06:25:00,52.0,52.0,30.10,South,180,3.0,4.0,100,0.00,,,0.00,Weather View 32 v70,2013-05-30 10:25:00,
2013-05-30 06:30:00,52.0,52.0,30.10,SSE,157,2.0,4.0,100,0.00,,,0.00,Weather View 32 v70,2013-05-30 10:30:00,
2013-05-30 06:35:00,53.0,53.0,30.09,ESE,112,0.0,4.0,100,0.00,,,0.00,Weather View 32 v70,2013-05-30 10:35:00,
2013-05-30 06:40:00,53.0,53.0,30.10,ESE,112,2.0,4.0,100,0.00,,,0.00,Weather View 32 v70,2013-05-30 10:40:00,
2013-05-30 06:45:00,53.0,53.0,30.10,ESE,112,0.0,3.0,100,0.00,,,0.00,Weather View 32 v70,2013-05-30 10:45:00,
2013-05-30 06:50:00,53.0,53.0,30.09,South,180,1.0,3.0,100,0.00,,,0.00,Weather View 32 v70,2013-05-30 10:50:00,
2013-05-30 06:55:00,53.0,53.0,30.09,South,180,0.0,3.0,100,0.00,,,0.00,Weather View 32 v70,2013-05-30 10:55:00,
2013-05-30 07:00:00,54.0,54.0,30.10,SW,225,3.0,3.0,100,0.00,,,0.00,Weather View 32 v70,2013-05-30 11:00:00,
2013-05-30 07:05:00,54.0,54.0,30.10,West,270,0.0,3.0,100,0.00,,,0.00,Weather View 32 v70,2013-05-30 11:05:00,
2013-05-30 07:14:00,53.0,53.0,30.11,SSW,202,2.0,3.0,100,0.00,,,0.00,Weather View 32 v70,2013-05-30 11:14:00,
2013-05-30 07:25:00,54.0,54.0,30.12,SW,225,3.0,3.0,100,0.00,,,0.00,Weather View 32 v70,2013-05-30 11:25:00,
2013-05-30 07:30:00,54.0,54.0,30.12,SSW,202,4.0,4.0,100,0.00,,,0.00,Weather View 32 v70,2013-05-30 11:30:00,
2013-05-30 07:53:00,54.0,54.0,30.12,South,180,2.0,4.0,100,0.00,,,0.00,Weather View 32 v70,2013-05-30 11:53:00,
2013-05-30 07:58:00,54.0,54.0,30.12,SSE,157,2.0,4.0,100,0.00,,,0.00,Weather View 32 v70,2013-05-30 11:58:00,
2013-05-30 08:03:00,55.0,55.0,30.13,South,180,3.0,5.0,100,0.00,,,0.00,Weather View 32 v70,2013-05-30 12:03:00,
2013-05-30 10:07:00,67.0,61.0,30.24,SSW,202,2.0,0.0,81,0.00,,,0.00,Weather View 32 v70,2013-05-30 14:07:00,
2013-05-30 10:36:00,69.0,62.6,30.24,SSW,202,6.0,6.0,80,0.00,,,0.00,Weather View 32 v70,2013-05-30 14:36:00,
2013-05-30 10:45:00,69.0,62.2,30.24,West,270,6.0,6.0,79,0.00,,,0.00,Weather View 32 v70,2013-05-30 14:45:00,
2013-05-30 10:52:00,64.0,59.7,30.23,SSW,202,13.0,13.0,86,0.00,,,0.00,Weather View 32 v70,2013-05-30 14:52:00,
2013-05-30 10:57:00,64.0,60.4,30.22,SSW,202,12.0,13.0,88,0.00,,,0.00,Weather View 32 v70,2013-05-30 14:57:00,
2013-05-30 11:02:00,64.0,60.7,30.22,South,180,7.0,13.0,89,0.00,,,0.00,Weather View 32 v70,2013-05-30 15:02:00,
2013-05-30 11:07:00,65.0,61.0,30.22,SSW,202,8.0,13.0,87,0.00,,,0.00,Weather View 32 v70,2013-05-30 15:07:00,
2013-05-30 11:12:00,66.0,61.7,30.22,South,180,7.0,13.0,86,0.00,,,0.00,Weather View 32 v70,2013-05-30 15:12:00,
2013-05-30 11:17:00,66.0,61.0,30.22,South,180,2.0,13.0,84,0.00,,,0.00,Weather View 32 v70,2013-05-30 15:17:00,
2013-05-30 11:22:00,68.0,61.9,30.23,SW,225,6.0,13.0,81,0.00,,,0.00,Weather View 32 v70,2013-05-30 15:22:00,
2013-05-30 11:27:00,69.0,62.6,30.22,SSE,157,3.0,13.0,80,0.00,,,0.00,Weather View 32 v70,2013-05-30 15:27:00,
2013-05-30 11:34:00,71.0,63.4,30.23,South,180,7.0,13.0,77,0.00,,,0.00,Weather View 32 v70,2013-05-30 15:34:00,
2013-05-30 11:53:00,71.0,63.8,30.24,SSW,202,10.0,13.0,78,0.00,,,0.00,Weather View 32 v70,2013-05-30 15:53:00,
2013-05-30 12:06:00,71.0,63.4,30.23,South,180,4.0,10.0,77,0.00,,,0.00,Weather View 32 v70,2013-05-30 16:06:00,
2013-05-30 12:47:00,75.0,62.0,30.24,WNW,292,8.0,10.0,64,0.00,,,0.00,Weather View 32 v70,2013-05-30 16:47:00,
2013-05-30 12:52:00,75.0,61.5,30.24,WNW,292,7.0,10.0,63,0.00,,,0.00,Weather View 32 v70,2013-05-30 16:52:00,
2013-05-30 12:57:00,75.0,61.5,30.24,North,360,3.0,11.0,63,0.00,,,0.00,Weather View 32 v70,2013-05-30 16:57:00,
2013-05-30 13:02:00,76.0,62.0,30.24,NW,315,9.0,11.0,62,0.00,,,0.00,Weather View 32 v70,2013-05-30 17:02:00,
2013-05-30 13:07:00,76.0,61.1,30.24,West,270,9.0,11.0,60,0.00,,,0.00,Weather View 32 v70,2013-05-30 17:07:00,
2013-05-30 13:12:00,77.0,61.0,30.24,West,270,2.0,11.0,58,0.00,,,0.00,Weather View 32 v70,2013-05-30 17:12:00,
2013-05-30 13:17:00,77.0,61.0,30.25,NE,45,6.0,11.0,58,0.00,,,0.00,Weather View 32 v70,2013-05-30 17:17:00,
2013-05-30 13:24:00,76.0,61.1,30.26,NW,315,9.0,11.0,60,0.00,,,0.00,Weather View 32 v70,2013-05-30 17:24:00,
2013-05-30 13:32:00,78.0,60.5,30.26,West,270,1.0,11.0,55,0.00,,,0.00,Weather View 32 v70,2013-05-30 17:32:00,
2013-05-30 13:37:00,79.0,60.9,30.26,WNW,292,0.0,11.0,54,0.00,,,0.00,Weather View 32 v70,2013-05-30 17:37:00,
2013-05-30 13:42:00,79.0,60.3,30.27,WSW,247,6.0,11.0,53,0.00,,,0.00,Weather View 32 v70,2013-05-30 17:42:00,
2013-05-30 13:47:00,78.0,60.5,30.26,West,270,4.0,11.0,55,0.00,,,0.00,Weather View 32 v70,2013-05-30 17:47:00,
2013-05-30 13:52:00,78.0,59.4,30.27,West,270,6.0,11.0,53,0.00,,,0.00,Weather View 32 v70,2013-05-30 17:52:00,
2013-05-30 13:57:00,79.0,60.3,30.27,NE,45,2.0,11.0,53,0.00,,,0.00,Weather View 32 v70,2013-05-30 17:57:00,
2013-05-30 14:02:00,80.0,60.2,30.28,NW,315,2.0,11.0,51,0.00,,,0.00,Weather View 32 v70,2013-05-30 18:02:00,
2013-05-30 14:07:00,78.0,60.5,30.28,NNW,337,6.0,11.0,55,0.00,,,0.00,Weather View 32 v70,2013-05-30 18:07:00,
2013-05-30 14:17:00,78.0,59.4,30.28,NW,315,2.0,11.0,53,0.00,,,0.00,Weather View 32 v70,2013-05-30 18:17:00,
2013-05-30 14:22:00,78.0,59.4,30.27,NE,45,2.0,11.0,53,0.00,,,0.00,Weather View 32 v70,2013-05-30 18:22:00,
2013-05-30 14:27:00,77.0,58.0,30.27,NW,315,8.0,11.0,52,0.00,,,0.00,Weather View 32 v70,2013-05-30 18:27:00,
2013-05-30 14:32:00,77.0,58.5,30.26,NNW,337,13.0,13.0,53,0.00,,,0.00,Weather View 32 v70,2013-05-30 18:32:00,
2013-05-30 14:45:00,79.0,59.8,30.27,NE,45,3.0,13.0,52,0.00,,,0.00,Weather View 32 v70,2013-05-30 18:45:00,
2013-05-30 14:52:00,80.0,60.2,30.27,North,360,8.0,13.0,51,0.00,,,0.00,Weather View 32 v70,2013-05-30 18:52:00,
2013-05-30 14:58:00,79.0,59.8,30.26,North,360,7.0,13.0,52,0.00,,,0.00,Weather View 32 v70,2013-05-30 18:58:00,
2013-05-30 15:24:00,80.0,59.6,30.26,NNW,337,6.0,13.0,50,0.00,,,0.00,Weather View 32 v70,2013-05-30 19:24:00,
2013-05-30 15:33:00,79.0,59.3,30.26,NW,315,6.0,13.0,51,0.00,,,0.00,Weather View 32 v70,2013-05-30 19:33:00,
2013-05-30 15:38:00,79.0,58.7,30.26,NNW,337,3.0,8.0,50,0.00,,,0.00,Weather View 32 v70,2013-05-30 19:38:00,
2013-05-30 15:43:00,80.0,60.2,30.26,NW,315,12.0,12.0,51,0.00,,,0.00,Weather View 32 v70,2013-05-30 19:43:00,
2013-05-30 15:48:00,79.0,58.7,30.26,WNW,292,9.0,12.0,50,0.00,,,0.00,Weather View 32 v70,2013-05-30 19:48:00,
2013-05-30 15:53:00,79.0,58.7,30.26,NW,315,8.0,12.0,50,0.00,,,0.00,Weather View 32 v70,2013-05-30 19:53:00,
2013-05-30 15:58:00,79.0,58.7,30.26,North,360,2.0,12.0,50,0.00,,,0.00,Weather View 32 v70,2013-05-30 19:58:00,
2013-05-30 16:03:00,79.0,58.7,30.26,SW,225,2.0,12.0,50,0.00,,,0.00,Weather View 32 v70,2013-05-30 20:03:00,
2013-05-30 16:08:00,79.0,59.3,30.26,NNW,337,8.0,13.0,51,0.00,,,0.00,Weather View 32 v70,2013-05-30 20:08:00,
2013-05-30 16:13:00,80.0,59.1,30.25,WSW,247,3.0,13.0,49,0.00,,,0.00,Weather View 32 v70,2013-05-30 20:13:00,
2013-05-30 16:18:00,79.0,58.1,30.25,NNW,337,8.0,13.0,49,0.00,,,0.00,Weather View 32 v70,2013-05-30 20:18:00,
2013-05-30 16:23:00,80.0,59.1,30.26,WNW,292,9.0,13.0,49,0.00,,,0.00,Weather View 32 v70,2013-05-30 20:23:00,
2013-05-30 16:28:00,81.0,59.4,30.26,North,360,3.0,13.0,48,0.00,,,0.00,Weather View 32 v70,2013-05-30 20:28:00,
2013-05-30 16:43:00,81.0,58.2,30.26,NNW,337,3.0,13.0,46,0.00,,,0.00,Weather View 32 v70,2013-05-30 20:43:00,
2013-05-30 16:48:00,82.0,58.5,30.27,NNW,337,7.0,13.0,45,0.00,,,0.00,Weather View 32 v70,2013-05-30 20:48:00,
2013-05-30 16:53:00,81.0,58.2,30.27,WNW,292,6.0,13.0,46,0.00,,,0.00,Weather View 32 v70,2013-05-30 20:53:00,
2013-05-30 17:09:00,80.0,57.9,30.28,NW,315,11.0,12.0,47,0.00,,,0.00,Weather View 32 v70,2013-05-30 21:09:00,
2013-05-30 17:15:00,80.0,57.3,30.26,NW,315,6.0,11.0,46,0.00,,,0.00,Weather View 32 v70,2013-05-30 21:15:00,
2013-05-30 17:21:00,80.0,57.3,30.26,NW,315,12.0,12.0,46,0.00,,,0.00,Weather View 32 v70,2013-05-30 21:21:00,
2013-05-30 17:26:00,80.0,57.9,30.26,WNW,292,6.0,12.0,47,0.00,,,0.00,Weather View 32 v70,2013-05-30 21:26:00,
2013-05-30 17:38:00,81.0,57.6,30.26,East,90,5.0,12.0,45,0.00,,,0.00,Weather View 32 v70,2013-05-30 21:38:00,
2013-05-30 18:06:00,81.0,57.0,30.27,North,360,10.0,12.0,44,0.00,,,0.00,Weather View 32 v70,2013-05-30 22:06:00,
2013-05-30 18:12:00,80.0,56.1,30.27,NW,315,12.0,12.0,44,0.00,,,0.00,Weather View 32 v70,2013-05-30 22:12:00,
2013-05-30 20:27:00,68.0,60.1,30.22,SSE,157,5.0,0.0,76,0.00,,,0.00,Weather View 32 v70,2013-05-31 00:27:00,
2013-05-30 21:06:00,66.0,60.0,30.22,SSE,157,0.0,5.0,81,0.00,,,0.00,Weather View 32 v70,2013-05-31 01:06:00,
2013-05-30 22:48:00,61.0,58.7,30.21,South,180,0.0,0.0,92,0.00,,,0.00,Weather View 32 v70,2013-05-31 02:48:00,
2013-05-30 22:56:00,61.0,58.7,30.20,South,180,0.0,0.0,92,0.00,,,0.00,Weather View 32 v70,2013-05-31 02:56:00,
2013-05-30 23:19:00,60.0,58.6,30.20,SSW,202,0.0,0.0,95,0.00,,,0.00,Weather View 32 v70,2013-05-31 03:19:00,